STARLINK-5677, 55463

Orbit data source: Space-Track

STARLINK-5677, 55463 is a payload satellite owned by SpaceX/Seattle (US) in LEO that was launched on Thu, 02 Feb 2023 UTC via an FALCON 9 launch vehicle from the Air Force Eastern Test Range (AFETR). Payload-class satellites include a variety of spacecraft equipped with specific instruments for various scientific and technological missions. These include communications satellites like Starlink; space stations such as the ISS; scientific satellites like the Hubble; Earth observation satellites from companies like Planet Labs, Umbra, and HawkEye 360; GPS; miniature CubeSats for education and research; and military/defense satellites.

Loading next visibility...
Identifier
55463, 2023-015Q
Orbit
LEO
Country
Flag of USUS
Related business
Manufacturer
SpaceX/Seattle
Mission
Operational Commercial Communications
Bus & Motor
STARLINK, Unknown motor
Mass
305 kg wet, ~290 kg dry
Launch date (UTC)
2023-02-02 (3 years ago)
Launch vehicle
FALCON 9
Launch site
Air Force Eastern Test Range (AFETR)
Object type
Payload
Rocket body
Debris
Shape & HBR
Box + 1 Pan, 10.1 m
Radar Cross Section
13.562 m², Large (>1 m²)

Expand to show TLE details & history
Last TLE update: 11 hours ago

TLE from 11 hours ago
0 STARLINK-5677
1 55463U 23015Q   26035.58278718  .00000093  00000-0  21918-4 0  9993
2 55463  43.0011 145.9022 0001259 274.9457  85.1241 15.02537741165774
Epoch: 2026-02-04T13:59Z
TLE epoch observation values (Epoch: 2026-02-04T13:59:12.812Z)
Latitude
-0.00005°
Longitude
161.35147°
Altitude
558.778 km
Speed
7.584 km/s
True Right ascension
09h 43m 36s
True Declination
0° 00' 00"
Sunlit
Object was in full shadow at epoch
Visualization orbit readout
Latitude
Unknown
Longitude
Unknown
Altitude
Unknown
Speed
Unknown
Apparent Right ascension
Unknown
Apparent Declination
Unknown
Sunlit
N/A
Visualization observer readout
Local Sidereal Time
03:08:28
Azimuth
Unknown
Elevation
Unknown
Doppler factor
Unknown
Orbital elements
Apogee altitude
561.872 km
Perigee altitude
560.124 km
Semi-major axis
6,939.135 km
Eccentricity
0.00013
Inclination
43.0011°
RAAN
145.9022°
Arg. of periapsis
274.9457°
True anomaly
85.13848°
Mean anomaly
85.1241°
Eccentric anomaly
85.13129°
Mean motion
3.75479 °/min
Orbital period
95.88 mins
BSTAR
0.000021918
Loading maneuver chart data...
Computing Atmospheric mass density...
Loading historical data...
Loading historical data...
Loading historical data...
Loading historical data...
Loading historical data...
Loading historical data...
Loading historical data...

Documentation

Showing up to 5 results
|